004  
ASUS41 KALY 250210  
RWRALY  
 
NEW YORK STATE HOURLY WEATHER ROUNDUP  
NATIONAL WEATHER SERVICE ALBANY NY  
1000 PM EDT MON APR 24 2017  
 
NOTE: "FAIR" INDICATES FEW OR NO CLOUDS BELOW 12,000 FEET WITH NO  
SIGNIFICANT WEATHER AND/OR NO S TO VISIBILITY
.  
 
NYZ032-033-038>043-046>054-057>066-NYZ062>081-082-084-250300-  
EAST  
 
 
CITY SKY/WX TMP DP RH WIND PRES REMARKS
 
ALBANY CLOUDY 54 34 46 N9 30.16R  
GLENS FALLS CLEAR 48 32 53 NE6 30.18R  
POUGHKEEPSIE CLOUDY 59 35 40 SE8 30.12S  
NEWBURGH MOCLDY 59 39 47 E9 30.14F  
MONTGOMERY CLOUDY 59 36 42 SE3 30.12S  
WHITE PLAINS CLOUDY 52 43 71 E6 30.13S  
ISLIP CLOUDY 51 46 83 E8 30.14S  
NEW YORK CITY CLOUDY 53 46 77 NE9 30.14R  
CENTRAL PARK CLOUDY 54 42 64 VRB3 30.16R  

 
 
NYZ005>009-017-018-044>046-055-056-250300-  
CENTRAL  
 
 
CITY SKY/WX TMP DP RH WIND PRES REMARKS
 
FULTON CLEAR 52 38 58 NE7 30.08R  
SYRACUSE CLOUDY 58 40 51 NE9 30.07R  
ROME CLEAR 59 37 44 E3 30.10R  
ELMIRA PTCLDY 55 43 63 E8 30.07R  
BINGHAMTON CLOUDY 56 32 40 S12 30.10R  
MONTICELLO CLOUDY 54 36 50 SE7 30.14S  

 
 
NYZ026>034-041>043-087-250300-  
NORTH  
 
 
CITY SKY/WX TMP DP RH WIND PRES REMARKS
 
WATERTOWN CLEAR 46 33 60 NE13 30.14S  
FORT DRUM NOT AVBL  
OGDENSBURG FAIR 44 30 58 NE9 30.20S  
MASSENA PTCLDY 44 28 53 NE14 30.24S  
SARANAC LAKE CLEAR 38 29 70 NE5 30.18S WCI 34  
PLATTSBURGH CLEAR 40 27 59 CALM 30.26R  

 
 
NYZ001>004-010>016-019>021-085-250300-  
WEST  
 
 
CITY SKY/WX TMP DP RH WIND PRES REMARKS
 
NIAGARA FALLS PTCLDY 50 34 54 E15 30.05R  
BUFFALO CLOUDY 51 35 54 E16 30.05R  
DUNKIRK CLEAR 48 41 76 CALM 30.00R  
JAMESTOWN CLOUDY 57 28 33 SE6 30.01S  
WELLSVILLE CLOUDY 57 28 33 SE9 30.07R  
ROCHESTER CLEAR 50 35 56 E12 30.10R  
PENN YAN CLOUDY 51 37 58 CALM 30.09R  

 
 
KEY  
WCI = WIND CHILL INDEX  
VSB = VISIBILITY  
HX = HEAT INDEX  

 
 
 
CLICK HERE TO GO TO PREVIOUS BULLETINS.

The Nexlab NY Page
The Nexlab VT Page
The Nexlab MA Page
The Nexlab CT Page Main Text Page